VINASAT-1

Last updated on Thu Oct 30 2025 00:02:48 GMT+0000 (Coordinated Universal Time)

1 32767U 08018A 25302.42592412 -.00000318 00000+0 00000+0 0 9994 2 32767 0.0154 336.9408 0002157 260.7629 85.6121 1.00269062 64275
UTC large
Height (km)
Speed (km/s)
/
Latitude / Longitude
Inclination (degrees)
Orbital Period (minutes)
Azimuth
Elevation
Range (km)
Doppler Factor

Next 0 passes for location: London (51.5072 / 0.1276)

Sorry there are no passes over London.